Wind_Speed
14 18 21 22 23 23 23 14 8 7 5 3 3 8 10 11 13 14 15 18 22 27 28 24 27 30 28 26 24 26 25 22 18 22 26 26 27 22 22 26 29 28 20
17 18 21 23 21 19 17 13 9 5 7 7 2 4 6 7 8 12 13 18 19 20 26 29 27 29 27 26 26 23 21 31 30 28 29 24 26 30 26 24 25 27 25
22 18 20 24 22 16 12 9 8 7 8 4 1 3 5 6 9 10 11 12 15 18 18 19 23 28 29 31 31 31 30 26 25 25 25 24 29 27 28 31 32 31 34
21 21 22 25 22 17 10 8 5 7 7 7 2 6 6 7 10 11 12 12 12 15 19 22 23 29 30 32 33 33 32 28 24 21 23 26 27 29 31 33 33 32 32
17 18 26 24 22 17 13 7 6 5 4 4 4 5 4 5 7 10 15 16 20 23 25 26 24 29 30 34 35 32 30 28 27 29 25 28 31 32 32 34 31 32 26
19 20 21 21 21 15 13 8 4 4 4 6 5 5 5 6 6 7 7 9 14 17 21 28 28 30 30 33 32 32 31 28 30 31 34 35 34 32 30 31 35 31 25
22 18 19 19 16 13 8 5 5 5 6 8 9 11 14 13 13 14 15 16 15 16 16 18 18 24 24 25 25 26 27 30 30 31 31 30 32 35 37 37 32 30 32
21 18 14 15 16 10 8 7 8 11 13 15 18 19 17 16 16 17 17 17 18 19 20 21 21 22 24 26 27 29 30 30 30 30 32 32 36 36 34 36 38 38 39
18 17 17 17 14 14 15 16 17 20 21 21 22 18 16 14 16 18 19 21 22 22 21 22 24 25 26 28 28 27 30 30 30 30 30 32 34 36 39 41 43 46 46
16 13 14 13 13 16 16 18 18 20 24 24 24 20 20 18 19 20 22 22 23 25 25 26 28 28 28 28 29 29 30 30 31 33 35 34 36 39 43 45 48 46 46
16 14 14 13 15 15 18 20 20 22 23 24 24 24 23 22 18 20 22 24 24 27 28 30 30 32 32 30 31 34 35 36 38 39 39 40 38 35 39 41 44 43 45
14 13 16 19 20 20 21 23 23 21 23 24 26 27 21 20 22 20 22 25 26 24 25 23 27 29 30 29 28 27 27 31 33 32 33 36 42 43 37 38 41 39 45
18 17 19 21 22 23 24 24 26 28 28 26 26 27 27 19 23 22 24 24 28 28 30 30 22 25 27 29 27 31 27 28 32 36 37 39 39 41 43 43 44 47 48
22 22 23 25 23 19 21 22 23 24 25 25 24 24 25 27 20 22 22 23 24 25 28 28 27 25 29 30 28 31 33 35 37 39 42 44 45 47 48 49 51 53 54
22 23 23 23 23 22 22 20 20 21 22 22 22 21 19 19 20 20 21 21 20 21 22 24 26 29 31 33 35 37 39 42 45 47 49 51 52 54 56 57 58 59 61
27 27 27 26 24 22 19 18 18 18 18 19 20 20 19 19 18 19 21 23 24 27 28 29 31 33 35 37 40 44 47 50 52 55 57 59 61 62 63 63 63 64 65
27 25 26 24 21 20 20 20 19 19 19 19 19 18 17 18 19 22 24 26 28 30 32 33 36 39 42 45 47 50 52 54 55 57 58 59 60 61 63 64 64 65 66
25 25 24 21 20 19 18 18 17 16 15 15 15 17 19 22 23 25 27 29 31 33 35 38 41 44 47 51 53 55 56 57 57 57 57 57 56 56 55 55 55 55 56
26 25 21 19 18 15 14 14 13 11 15 20 19 20 22 24 26 28 31 33 34 36 39 43 47 51 54 56 58 57 56 54 53 54 53 52 50 50 50 50 50 49 49
22 22 18 16 14 12 12 15 17 18 19 22 21 22 25 28 30 33 35 37 40 43 46 48 49 50 51 52 53 51 50 48 49 51 48 43 42 41 42 41 39 37 35
19 18 17 17 17 18 19 20 21 18 19 23 26 27 28 31 33 36 38 41 44 47 51 54 53 50 47 46 46 47 46 46 45 41 36 35 36 35 35 35 32 29 23
22 20 19 19 19 19 20 23 25 22 22 24 27 30 32 34 37 40 43 47 48 48 49 46 44 41 40 41 42 43 43 38 33 30 31 32 30 32 30 26 22 18 15
28 25 20 18 23 23 21 18 20 22 25 28 31 33 35 38 41 45 48 49 46 41 38 36 35 36 36 36 37 37 35 30 28 26 27 29 28 26 22 18 14 13 13
21 17 14 17 21 18 19 21 23 25 27 29 32 35 38 42 45 47 47 42 35 31 30 32 32 32 31 31 31 32 30 28 23 22 24 24 21 18 15 13 12 13 8
15 16 16 15 17 19 23 24 26 29 31 34 36 39 43 45 44 39 34 30 28 28 29 30 29 27 28 29 29 30 27 24 20 18 18 19 18 13 10 8 3 9 13
15 12 13 15 17 19 22 25 26 30 34 37 40 43 41 36 32 29 28 27 26 28 28 27 26 25 24 26 27 28 26 20 17 14 12 11 10 9 10 9 8 6 4
Wind_Direction
12 358 4 1 3 13 21 9 17 15 10 45 269 202 215 213 207 216 220 221 230 232 224 221 231 244 248 250 252 262 266 240 251 261 260 260 259 262 268 266 260 280 261
352 354 358 356 354 5 10 17 15 326 325 347 92 100 155 173 200 221 220 234 238 231 231 237 239 242 240 244 256 255 264 261 272 267 260 252 253 259 264 259 273 262 277
326 334 342 344 345 352 2 3 17 47 27 280 40 30 109 158 200 217 239 247 226 232 239 250 256 246 245 251 253 256 257 260 263 262 261 258 257 261 267 271 269 274 279
324 326 333 338 344 353 1 7 1 20 33 31 50 253 268 232 236 250 255 249 252 252 258 264 266 257 253 256 253 256 255 249 254 248 258 262 265 271 259 270 277 277 283
332 325 324 333 338 345 351 350 2 0 358 12 338 331 342 339 304 261 253 251 249 253 261 269 266 259 248 248 253 255 252 249 253 258 254 269 269 267 265 276 267 279 276
312 315 316 322 328 342 337 335 321 330 316 290 294 299 305 306 300 306 296 287 281 273 260 259 259 266 265 268 262 252 267 260 260 271 276 276 269 257 268 258 276 275 272
313 316 313 317 314 326 326 321 306 319 309 294 285 283 293 297 293 288 283 277 278 280 274 267 267 266 269 267 264 261 268 281 279 270 273 273 256 258 265 268 270 273 277
314 318 306 304 302 301 309 305 313 310 304 300 298 293 289 292 298 301 287 287 286 282 277 272 271 274 277 279 278 277 273 269 266 266 266 264 263 266 267 269 278 278 274
313 314 306 292 300 284 300 310 306 295 298 303 306 303 300 291 295 297 297 292 289 289 287 289 286 283 283 282 279 278 279 279 277 273 270 270 271 272 272 273 274 275 272
307 308 310 292 296 288 280 297 305 301 297 302 305 298 297 297 301 304 302 296 293 292 292 293 293 291 286 282 282 281 279 276 277 278 276 274 274 273 272 273 276 280 275
303 310 318 325 317 322 311 309 302 300 299 298 294 293 292 290 283 293 297 283 284 289 292 298 292 288 283 281 281 283 282 283 283 281 281 282 278 283 290 287 290 278 276
297 308 317 324 323 317 307 297 297 288 285 283 292 291 282 286 291 288 297 303 307 299 302 307 290 279 282 282 282 286 295 291 290 284 284 285 282 289 287 286 283 275 277
293 306 313 321 321 315 305 299 293 289 283 291 281 277 274 279 288 300 303 303 298 298 299 302 287 279 276 272 272 294 302 296 291 289 292 295 292 288 286 281 279 280 281
286 293 305 312 312 299 302 296 294 295 294 295 289 285 282 283 292 283 281 285 285 290 294 296 299 292 293 302 301 295 293 292 289 287 285 285 284 282 281 281 280 278 278
291 294 300 304 306 300 296 295 293 292 290 290 292 290 287 287 284 286 286 287 290 289 291 291 293 294 294 293 294 295 294 294 293 291 289 287 286 285 283 283 281 279 277
294 298 299 300 299 298 294 297 293 289 289 289 290 291 294 295 296 298 298 297 294 295 294 293 292 292 293 294 294 295 295 296 295 294 293 291 290 288 287 285 282 280 279
293 297 296 294 292 292 292 290 288 290 289 287 288 293 297 297 296 294 293 294 295 295 296 297 297 298 298 298 298 297 297 295 293 290 286 283 280 279 279 279 278 277 278
297 298 295 291 289 288 286 284 286 287 290 291 294 297 295 294 296 298 300 300 300 299 300 300 301 301 301 301 301 300 299 298 296 294 293 292 291 290 288 285 283 282 281
297 293 292 287 286 281 276 280 282 280 284 281 286 292 298 301 301 301 301 302 303 303 303 304 304 305 305 304 304 303 302 302 301 299 298 298 297 296 294 293 291 288 284
286 284 283 281 274 265 259 269 279 284 285 291 295 296 299 302 304 306 306 307 308 307 307 308 306 306 305 305 305 305 305 305 303 303 306 303 302 303 305 304 302 298 291
276 275 274 269 272 278 274 275 281 281 281 287 291 296 301 305 307 307 306 307 309 309 309 309 309 309 309 310 311 310 310 308 307 308 309 310 311 311 307 306 305 302 290
274 260 258 262 269 273 276 282 287 290 289 294 300 303 305 306 306 309 312 312 312 312 312 313 313 314 314 314 314 313 312 313 311 314 318 318 317 314 314 314 313 304 283
280 260 242 262 270 275 283 287 288 287 292 297 300 303 305 308 311 312 313 314 314 314 314 314 316 318 319 321 321 321 320 317 315 318 322 321 321 322 326 332 322 311 304
276 258 252 263 277 288 288 287 289 290 294 298 300 303 307 309 312 314 314 313 313 313 316 318 321 323 326 330 335 335 328 324 318 319 322 324 327 332 338 338 325 300 276
232 249 256 264 266 276 282 283 288 295 300 304 305 306 310 313 314 313 311 312 313 314 318 320 321 324 328 332 338 340 340 338 337 335 341 343 345 346 349 343 58 112 93
256 254 275 272 275 278 279 284 291 297 301 305 309 311 312 313 312 310 310 312 314 314 316 319 321 322 327 334 340 346 349 343 342 349 358 7 20 39 53 55 56 69 91
Height
5840 5839 5835 5831 5828 5825 5821 5819 5817 5815 5815 5815 5815 5815 5815 5818 5821 5824 5827 5829 5831 5833 5836 5839 5842 5843 5846 5847 5848 5850 5849 5852 5852 5852 5852 5853 5853 5852 5851 5851 5851 5851 5849
5841 5838 5835 5832 5830 5826 5823 5820 5819 5816 5815 5815 5813 5814 5814 5817 5820 5821 5824 5826 5826 5828 5831 5834 5836 5838 5839 5841 5842 5844 5843 5844 5845 5844 5845 5845 5845 5845 5843 5844 5844 5843 5842
5839 5837 5833 5830 5828 5826 5823 5821 5819 5817 5815 5815 5815 5815 5814 5817 5819 5820 5822 5823 5824 5826 5827 5829 5831 5832 5833 5835 5835 5837 5837 5837 5835 5836 5836 5837 5837 5836 5836 5835 5835 5836 5833
5836 5833 5831 5828 5826 5823 5821 5820 5818 5817 5816 5815 5815 5816 5817 5818 5819 5819 5820 5820 5821 5823 5824 5825 5825 5826 5826 5827 5829 5829 5829 5828 5828 5828 5828 5829 5829 5829 5827 5826 5826 5825 5824
5833 5831 5827 5825 5823 5821 5819 5818 5817 5816 5815 5814 5814 5814 5814 5815 5815 5815 5815 5816 5817 5817 5818 5818 5820 5820 5819 5820 5820 5820 5821 5821 5821 5821 5821 5821 5820 5820 5819 5817 5817 5816 5815
5831 5830 5826 5823 5821 5819 5817 5815 5814 5813 5813 5813 5812 5812 5812 5812 5812 5812 5813 5812 5812 5811 5812 5813 5813 5813 5813 5813 5813 5813 5813 5813 5814 5813 5813 5812 5810 5811 5810 5808 5809 5808 5807
5826 5825 5821 5819 5818 5817 5815 5813 5810 5811 5810 5810 5810 5809 5809 5808 5808 5809 5808 5807 5808 5808 5808 5807 5807 5807 5807 5807 5806 5806 5806 5806 5806 5805 5804 5804 5804 5803 5801 5801 5800 5800 5799
5822 5820 5818 5817 5814 5815 5813 5812 5810 5808 5807 5806 5806 5805 5804 5804 5803 5803 5802 5803 5803 5802 5803 5802 5801 5801 5799 5799 5799 5798 5797 5797 5797 5796 5796 5796 5795 5794 5794 5794 5793 5791 5790
5819 5816 5814 5813 5812 5812 5810 5809 5807 5805 5804 5804 5802 5801 5799 5799 5798 5797 5797 5796 5795 5795 5795 5795 5794 5794 5792 5791 5790 5790 5789 5788 5787 5787 5786 5786 5786 5785 5784 5783 5781 5779 5777
5815 5813 5811 5809 5809 5807 5807 5805 5803 5801 5799 5797 5797 5796 5796 5795 5794 5793 5791 5790 5790 5789 5788 5787 5786 5784 5783 5782 5781 5781 5781 5781 5780 5779 5778 5778 5777 5775 5773 5770 5767 5764 5762
5810 5808 5806 5804 5803 5801 5801 5799 5798 5796 5794 5792 5791 5790 5790 5789 5788 5787 5785 5784 5783 5782 5781 5779 5778 5776 5774 5773 5772 5771 5770 5769 5768 5767 5766 5765 5763 5760 5758 5755 5752 5750 5749
5806 5804 5802 5800 5799 5797 5795 5794 5792 5791 5789 5787 5785 5784 5783 5780 5780 5779 5777 5775 5774 5773 5771 5769 5768 5767 5766 5765 5763 5761 5760 5759 5758 5755 5753 5752 5749 5747 5744 5741 5738 5737 5734
5800 5799 5797 5795 5793 5791 5790 5787 5785 5784 5783 5780 5778 5777 5775 5773 5772 5771 5769 5768 5766 5764 5762 5760 5760 5758 5756 5756 5754 5751 5750 5748 5746 5744 5741 5739 5737 5733 5730 5726 5723 5720 5719
5794 5793 5791 5788 5787 5786 5784 5782 5779 5776 5774 5772 5770 5769 5768 5767 5766 5765 5763 5762 5760 5759 5757 5755 5753 5751 5749 5747 5745 5742 5739 5737 5734 5732 5729 5725 5723 5719 5715 5712 5709 5705 5701
5786 5785 5784 5783 5780 5778 5777 5774 5772 5770 5768 5766 5764 5762 5761 5760 5759 5758 5757 5755 5754 5753 5751 5748 5746 5744 5741 5739 5736 5732 5729 5725 5722 5718 5713 5709 5705 5700 5696 5693 5690 5686 5683
5777 5777 5776 5774 5772 5771 5769 5767 5765 5763 5762 5760 5758 5757 5755 5754 5752 5751 5750 5749 5747 5745 5742 5740 5737 5735 5732 5728 5725 5721 5716 5711 5705 5700 5695 5689 5685 5680 5674 5671 5667 5664 5659
5770 5768 5767 5767 5765 5763 5761 5759 5758 5757 5756 5754 5753 5751 5750 5749 5747 5746 5744 5742 5740 5737 5734 5731 5727 5723 5719 5714 5710 5705 5700 5695 5689 5683 5677 5671 5665 5659 5654 5649 5645 5641 5636
5762 5760 5759 5759 5757 5756 5754 5752 5751 5751 5750 5748 5747 5747 5745 5743 5741 5739 5737 5734 5731 5727 5723 5719 5714 5709 5704 5698 5692 5687 5680 5673 5666 5660 5654 5649 5642 5636 5632 5627 5623 5620 5615
5754 5752 5751 5750 5749 5749 5748 5746 5746 5747 5746 5743 5744 5741 5738 5736 5733 5731 5728 5725 5721 5717 5712 5707 5700 5693 5686 5680 5675 5668 5662 5655 5646 5640 5636 5631 5624 5619 5613 5607 5603 5599 5594
5747 5746 5745 5744 5744 5744 5744 5742 5742 5742 5739 5736 5735 5735 5732 5729 5726 5722 5718 5714 5709 5703 5698 5695 5687 5679 5671 5663 5657 5652 5647 5641 5632 5624 5621 5615 5609 5604 5598 5591 5586 5582 5579
5740 5739 5739 5738 5738 5738 5736 5736 5735 5736 5734 5732 5730 5727 5724 5720 5716 5712 5707 5702 5696 5689 5682 5676 5671 5665 5658 5650 5643 5637 5633 5627 5619 5613 5608 5603 5598 5592 5586 5581 5576 5572 5570
5733 5732 5731 5731 5732 5730 5729 5729 5728 5727 5724 5723 5720 5717 5714 5710 5705 5700 5694 5688 5681 5674 5667 5661 5656 5651 5646 5641 5633 5626 5620 5614 5608 5604 5599 5594 5588 5583 5578 5573 5569 5566 5565
5725 5724 5724 5723 5723 5723 5722 5721 5720 5719 5717 5714 5711 5708 5703 5699 5693 5688 5682 5675 5669 5663 5658 5652 5647 5642 5637 5632 5624 5617 5610 5605 5601 5597 5593 5588 5582 5577 5572 5569 5567 5566 5565
5718 5717 5719 5719 5718 5717 5716 5714 5713 5712 5709 5706 5702 5698 5693 5688 5682 5675 5670 5665 5660 5656 5651 5645 5640 5635 5630 5624 5618 5610 5604 5599 5595 5592 5588 5583 5578 5574 5570 5568 5567 5566 5566
5709 5710 5712 5713 5713 5712 5710 5708 5705 5702 5700 5696 5692 5687 5681 5675 5670 5665 5660 5657 5653 5649 5644 5639 5635 5630 5625 5620 5614 5607 5601 5596 5592 5588 5585 5580 5576 5573 5570 5569 5568 5568 5567
5706 5706 5705 5706 5705 5704 5703 5701 5698 5694 5690 5685 5680 5675 5670 5665 5661 5656 5653 5650 5647 5642 5638 5634 5629 5625 5622 5617 5612 5606 5600 5595 5592 5589 5585 5582 5579 5576 5574 5573 5571 5571 5571